TimeEDT,TemperatureF,Dew PointF,Humidity,Sea Level PressureIn,VisibilityMPH,Wind Direction,Wind SpeedMPH,Gust SpeedMPH,PrecipitationIn,Events,Conditions,WindDirDegrees,DateUTC
12:54 AM,72.0,66.0,81,29.86,10.0,Calm,Calm,-,N/A,,Clear,0,2013-06-12 04:54:00
1:54 AM,70.0,66.9,90,29.85,10.0,Calm,Calm,-,N/A,,Clear,0,2013-06-12 05:54:00
2:54 AM,69.1,66.9,93,29.85,10.0,Calm,Calm,-,N/A,,Clear,0,2013-06-12 06:54:00
3:54 AM,70.0,68.0,93,29.83,9.0,WSW,5.8,-,N/A,,Clear,250,2013-06-12 07:54:00
4:54 AM,70.0,68.0,93,29.86,10.0,Variable,4.6,-,N/A,,Partly Cloudy,0,2013-06-12 08:54:00
5:54 AM,70.0,68.0,93,29.88,8.0,Calm,Calm,-,N/A,,Partly Cloudy,0,2013-06-12 09:54:00
6:54 AM,69.1,66.9,93,29.88,7.0,Calm,Calm,-,N/A,,Clear,0,2013-06-12 10:54:00
7:54 AM,75.0,70.0,84,29.86,7.0,SSW,3.5,-,N/A,,Clear,200,2013-06-12 11:54:00
8:54 AM,75.9,70.0,82,29.90,10.0,West,3.5,-,N/A,,Clear,260,2013-06-12 12:54:00
9:54 AM,78.1,71.1,79,29.91,10.0,Calm,Calm,-,N/A,,Clear,0,2013-06-12 13:54:00
10:54 AM,80.1,71.1,74,29.88,10.0,SW,3.5,-,N/A,,Clear,220,2013-06-12 14:54:00
11:54 AM,82.0,71.1,69,29.87,10.0,SW,6.9,-,N/A,,Clear,220,2013-06-12 15:54:00
12:54 PM,84.9,72.0,65,29.84,10.0,WSW,6.9,-,N/A,,Clear,250,2013-06-12 16:54:00
1:54 PM,84.9,71.1,63,29.78,10.0,SW,4.6,-,N/A,,Clear,230,2013-06-12 17:54:00
2:54 PM,89.1,70.0,53,29.76,10.0,SSW,10.4,19.6,N/A,,Partly Cloudy,200,2013-06-12 18:54:00
3:54 PM,87.1,71.1,59,29.76,10.0,SSW,13.8,21.9,N/A,,Clear,200,2013-06-12 19:54:00
4:54 PM,87.1,71.1,59,29.76,10.0,SW,10.4,-,N/A,,Clear,220,2013-06-12 20:54:00
5:54 PM,88.0,72.0,59,29.73,10.0,South,6.9,-,N/A,,Clear,190,2013-06-12 21:54:00
6:54 PM,88.0,70.0,55,29.71,10.0,SW,6.9,19.6,N/A,,Partly Cloudy,220,2013-06-12 22:54:00
7:54 PM,87.1,70.0,57,29.66,10.0,SSW,10.4,16.1,N/A,,Scattered Clouds,200,2013-06-12 23:54:00
8:54 PM,86.0,70.0,59,29.63,10.0,South,6.9,-,N/A,,Partly Cloudy,190,2013-06-13 00:54:00
9:54 PM,84.9,70.0,61,29.61,10.0,SSW,12.7,20.7,N/A,,Partly Cloudy,200,2013-06-13 01:54:00
10:27 PM,84.2,71.6,66,29.64,10.0,SSW,9.2,18.4,N/A,Thunderstorm,Scattered Clouds,210,2013-06-13 02:27:00
10:54 PM,80.1,71.1,74,29.65,8.0,NNE,24.2,29.9,0.02,Rain-Thunderstorm,Light Thunderstorms and Rain,30,2013-06-13 02:54:00
11:11 PM,69.8,66.2,88,29.67,9.0,Calm,Calm,-,0.01,Rain-Thunderstorm,Light Thunderstorms and Rain,0,2013-06-13 03:11:00
11:24 PM,69.8,66.2,88,29.65,10.0,NNE,3.5,-,0.01,Thunderstorm,Overcast,20,2013-06-13 03:24:00
11:54 PM,70.0,68.0,93,29.63,10.0,Calm,Calm,-,0.03,Thunderstorm,Thunderstorm,0,2013-06-13 03:54:00